Location: Asarope
(8.2500°N, 4.4833°E)
Time: 22:42:05
(UTC+00:00)

ARIANE 5 DEB (SYLDA) - Pass Details

Date: 07 June 2020
Orbit: 537 x 35719 km, 3.8° (Epoch: 10 July)

Event Time Altitude Azimuth Distance (km) Brightness Sun altitude
Exits shadow 03:44:48 43° 230° (SW) 1,424 3.9 -22.8°
Maximum altitude 03:46:32 59° 175° (S) 1,468 4.2 -22.4°
Drops below altitude 10° 04:08:21 10° 98° (E) 9,905 9.4 -17.7°
Sets 04:39:17 0° 95° (E) 18,729 11.2 -10.8°
